CW3202 Weather Reports


Display with metric or nautical units.
time (UTC)temp
F
wind
direction
speed
MPH
gust
MPH
rain 1hr
in
rain 24hr
in
rain mn
in
humidity
%
barometer
mb
20260506003504 65 230 1.0 4.0 0.00 0.00 0.00 74 1014.9
20260506003004 65 253 2.0 6.0 0.00 0.00 0.00 74 1014.8
20260506002504 65 218 4.0 6.0 0.00 0.00 0.00 75 1014.9
20260506002004 64 279 3.0 4.0 0.00 0.00 0.00 77 1014.8
20260506001504 64 230 2.0 4.0 0.00 0.00 0.00 74 1015.0
20260506001004 64 214 4.0 6.0 0.00 0.00 0.00 76 1015.0
20260506000504 64 271 2.0 8.0 0.00 0.00 0.00 78 1015.1
20260506000004 65 211 6.0 8.0 0.00 0.00 0.00 75 1015.1
20260505235504 65 169 6.0 6.0 0.00 0.00 0.00 75 1015.1
20260505235004 66 264 6.0 6.0 0.00 0.00 0.00 75 1015.1
20260505234505 66 196 1.0 6.0 0.00 0.00 0.00 74 1015.2
20260505234004 66 266 1.0 6.0 0.00 0.00 0.00 72 1015.1
20260505233504 66 183 2.0 3.0 0.00 0.00 0.00 75 1015.1
20260505233004 66 172 1.0 3.0 0.00 0.00 0.00 76 1015.0
20260505232504 65 172 2.0 7.0 0.00 0.00 0.00 75 1015.3
20260505232004 64 150 3.0 7.0 0.00 0.00 0.00 78 1015.4
20260505231504 64 182 2.0 6.0 0.00 0.00 0.00 76 1015.5
20260505231004 64 167 3.0 6.0 0.00 0.00 0.00 78 1015.5
20260505230504 63 228 0.0 6.0 0.00 0.00 0.00 77 1015.5
20260505230004 63 178 2.0 6.0 0.00 0.00 0.00 79 1015.5
20260505225504 63 234 1.0 8.0 0.00 0.00 0.00 78 1015.6
20260505225004 63 223 5.0 8.0 0.00 0.00 0.00 79 1015.6
20260505224504 64 205 8.0 8.0 0.00 0.00 0.00 79 1015.7
20260505223804 64 200 3.0 8.0 0.00 0.00 0.00 78 1015.7
20260505223304 63 118 2.0 8.0 0.00 0.00 0.00 77 1015.7
20260505222804 63 161 4.0 4.0 0.00 0.00 0.00 79 1015.7
20260505222306 63 190 2.0 6.0 0.00 0.00 0.00 78 1015.8
20260505221804 62 187 3.0 6.0 0.00 0.00 0.00 78 1015.8
20260505221304 63 162 2.0 6.0 0.00 0.00 0.00 79 1015.8
20260505220804 62 147 4.0 6.0 0.00 0.00 0.00 77 1015.9
20260505220305 62 198 5.0 9.0 0.00 0.00 0.00 78 1015.9
20260505215804 62 156 3.0 9.0 0.00 0.00 0.00 77 1015.9
20260505215204 62 171 6.0 6.0 0.00 0.00 0.00 79 1015.9
20260505214704 62 192 5.0 7.0 0.00 0.00 0.00 79 1015.9
20260505214004 63 198 7.0 7.0 0.00 0.00 0.00 76 1015.9
20260505213504 63 203 2.0 7.0 0.00 0.00 0.00 75 1016.0
20260505213004 63 186 1.0 7.0 0.00 0.00 0.00 76 1016.0
20260505212305 63 193 2.0 6.0 0.00 0.00 0.00 77 1016.0
20260505211804 64 196 1.0 4.0 0.00 0.00 0.00 74 1016.1
20260505211304 64 186 3.0 5.0 0.00 0.00 0.00 73 1016.1
20260505210705 64 164 2.0 5.0 0.00 0.00 0.00 75 1016.1
20260505210204 63 180 1.0 6.0 0.00 0.00 0.00 77 1016.2
20260505205704 62 144 4.0 6.0 0.00 0.00 0.00 78 1016.2
20260505205204 62 161 4.0 4.0 0.00 0.00 0.00 75 1016.2
20260505204504 62 180 3.0 6.0 0.00 0.00 0.00 76 1016.2
20260505204004 63 207 4.0 6.0 0.00 0.00 0.00 76 1016.1
20260505203504 64 182 4.0 4.0 0.00 0.00 0.00 75 1016.2
20260505203004 64 146 0.0 5.0 0.00 0.00 0.00 75 1016.1
20260505202504 63 138 0.0 5.0 0.00 0.00 0.00 76 1016.2
20260505202004 62 171 0.0 4.0 0.00 0.00 0.00 78 1016.2
20260505201504 62 169 4.0 4.0 0.00 0.00 0.00 77 1016.2
20260505201004 61 163 2.0 4.0 0.00 0.00 0.00 78 1016.3
20260505200304 60 215 0.0 3.0 0.00 0.00 0.00 78 1016.3
20260505195804 60 219 1.0 4.0 0.00 0.00 0.00 80 1016.3
20260505195305 59 220 3.0 5.0 0.00 0.00 0.00 80 1016.2
20260505194804 59 199 4.0 5.0 0.00 0.00 0.00 81 1016.2
20260505194304 59 224 2.0 5.0 0.00 0.00 0.00 79 1016.4
20260505193804 59 215 3.0 3.0 0.00 0.00 0.00 81 1016.4
20260505193304 59 360 0.0 5.0 0.00 0.00 0.00 80 1016.3
20260505192604 59 217 2.0 5.0 0.00 0.00 0.00 80 1016.4
20260505192104 59 360 4.0 4.0 0.00 0.00 0.00 79 1016.4
20260505191604 59 360 3.0 4.0 0.00 0.00 0.00 81 1016.3
20260505191004 59 360 4.0 4.0 0.00 0.00 0.00 82 1016.3
20260505190504 59 360 2.0 2.0 0.00 0.00 0.00 80 1016.3
20260505190004 58 360 1.0 5.0 0.00 0.00 0.00 81 1016.3
20260505185504 58 200 1.0 5.0 0.00 0.00 0.00 82 1016.3
20260505185004 58 194 5.0 5.0 0.00 0.00 0.00 83 1016.2
20260505184504 58 225 0.0 2.0 0.00 0.00 0.00 81 1016.2
20260505184004 58 360 0.0 3.0 0.00 0.00 0.00 81 1016.3
20260505183504 58 227 1.0 3.0 0.00 0.00 0.00 82 1016.3
20260505183004 58 185 1.0 3.0 0.00 0.00 0.00 84 1016.2
20260505182504 58 360 0.0 2.0 0.00 0.00 0.00 82 1016.3
20260505182004 58 360 0.0 4.0 0.00 0.00 0.00 82 1016.3
20260505181504 58 360 2.0 4.0 0.00 0.00 0.00 83 1016.2
20260505181004 58 360 0.0 3.0 0.00 0.00 0.00 82 1016.2
20260505180504 58 360 3.0 3.0 0.00 0.00 0.00 83 1016.2
20260505180004 58 360 3.0 3.0 0.00 0.00 0.00 84 1016.1
20260505175504 57 360 1.0 5.0 0.00 0.00 0.00 85 1016.1
20260505175004 57 360 3.0 5.0 0.00 0.00 0.00 85 1016.1
20260505174504 57 360 4.0 4.0 0.00 0.00 0.00 86 1016.1
20260505173604 57 360 3.0 3.0 0.00 0.00 0.00 86 1016.1
20260505173104 56 360 3.0 3.0 0.00 0.00 0.00 87 1016.1
20260505172604 56 200 2.0 3.0 0.00 0.00 0.00 86 1016.1
20260505172104 56 196 1.0 4.0 0.00 0.00 0.00 87 1016.0
20260505171604 56 194 2.0 4.0 0.00 0.00 0.00 86 1016.0
20260505171104 56 203 0.0 4.0 0.00 0.00 0.00 86 1016.1
20260505170604 56 360 1.0 3.0 0.00 0.00 0.00 87 1016.0
20260505170104 56 208 0.0 2.0 0.00 0.00 0.00 87 1015.8
20260505165404 56 208 1.0 2.0 0.00 0.00 0.00 86 1015.8
20260505164704 56 360 0.0 2.0 0.00 0.00 0.00 87 1015.8
20260505164004 56 360 1.0 3.0 0.00 0.00 0.00 88 1015.8
20260505163504 55 360 2.0 3.0 0.00 0.00 0.00 87 1015.8
20260505163004 55 360 1.0 2.0 0.00 0.00 0.00 87 1015.8
20260505162504 55 360 0.0 3.0 0.00 0.00 0.00 87 1015.7
20260505162004 55 360 1.0 3.0 0.00 0.00 0.00 88 1015.6
20260505161504 55 360 1.0 2.0 0.00 0.00 0.00 88 1015.6
20260505161004 55 360 0.0 2.0 0.00 0.00 0.00 88 1015.6
20260505160504 55 360 0.0 2.0 0.00 0.00 0.00 89 1015.5
20260505152804 54 360 1.0 3.0 0.00 0.00 0.00 91 1015.5
20260505152305 53 360 0.0 3.0 0.00 0.00 0.00 91 1015.5
20260505151804 53 360 3.0 3.0 0.00 0.00 0.00 91 1015.5
20260505150504 53 360 2.0 2.0 0.00 0.00 0.00 91 1015.4
20260505140504 52 167 3.0 3.0 0.00 0.00 0.00 93 1015.0
20260505125004 52 165 0.0 1.0 0.00 0.00 0.00 93 1014.5
20260505124305 52 165 0.0 0.0 0.00 0.00 0.00 93 1014.5
20260505123804 52 166 0.0 0.0 0.00 0.00 0.00 93 1014.4
20260505123104 52 165 0.0 0.0 0.00 0.00 0.00 93 1014.4
20260505122604 52 165 0.0 0.0 0.00 0.00 0.00 93 1014.5
20260505122104 52 165 0.0 0.0 0.00 0.00 0.00 93 1014.5
20260505121604 52 166 0.0 1.0 0.00 0.00 0.00 93 1014.4
20260505121105 52 166 0.0 1.0 0.00 0.00 0.00 93 1014.4
20260505120604 52 166 0.0 2.0 0.00 0.00 0.00 93 1014.4
20260505120104 52 165 0.0 4.0 0.00 0.00 0.00 93 1014.4
20260505115604 52 165 2.0 4.0 0.00 0.00 0.00 93 1014.3
20260505115104 53 169 1.0 1.0 0.00 0.00 0.00 93 1014.3
20260505114404 53 169 0.0 1.0 0.00 0.00 0.00 93 1014.3
20260505113904 53 169 0.0 1.0 0.00 0.00 0.00 93 1014.3
20260505113404 53 169 0.0 1.0 0.00 0.00 0.00 93 1014.3
20260505112704 53 360 0.0 1.0 0.00 0.00 0.00 92 1014.4
20260505112204 53 360 1.0 1.0 0.00 0.00 0.00 92 1014.3
20260505111604 53 169 0.0 0.0 0.00 0.00 0.00 92 1014.4
20260505110504 53 169 0.0 1.0 0.00 0.00 0.00 92 1014.2
20260505102004 53 360 1.0 2.0 0.00 0.00 0.00 92 1013.8
20260505100904 53 360 2.0 3.0 0.00 0.00 0.00 92 1013.8
20260505100404 53 360 0.0 3.0 0.00 0.00 0.00 92 1013.9
20260505095904 53 360 3.0 3.0 0.00 0.00 0.00 92 1013.9
20260505095404 53 360 2.0 3.0 0.00 0.00 0.00 92 1013.9
20260505094904 53 360 3.0 3.0 0.00 0.00 0.00 92 1013.9
20260505094404 53 360 1.0 3.0 0.00 0.00 0.00 92 1013.9
20260505093904 53 360 1.0 2.0 0.00 0.00 0.00 92 1013.8
20260505093404 53 360 2.0 2.0 0.00 0.00 0.00 92 1013.9
20260505092904 53 360 1.0 1.0 0.00 0.00 0.00 92 1013.7
20260505092404 53 360 1.0 1.0 0.00 0.00 0.00 92 1013.8
20260505091904 53 360 0.0 1.0 0.00 0.00 0.00 92 1013.8
20260505091404 53 360 0.0 1.0 0.00 0.00 0.00 92 1013.6
20260505090904 53 360 1.0 1.0 0.00 0.00 0.00 92 1013.7
20260505090204 53 360 1.0 1.0 0.00 0.00 0.00 92 1013.6
20260505085704 53 360 1.0 1.0 0.00 0.00 0.00 92 1013.6
20260505085204 53 360 1.0 1.0 0.00 0.00 0.00 92 1013.6
20260505084704 53 360 0.0 1.0 0.00 0.00 0.00 92 1013.5
20260505084204 53 360 0.0 1.0 0.00 0.00 0.00 92 1013.5
20260505083704 53 360 1.0 2.0 0.00 0.00 0.00 92 1013.5
20260505083204 53 360 1.0 2.0 0.00 0.00 0.00 91 1013.5
20260505082704 53 360 2.0 2.0 0.00 0.00 0.00 92 1013.4
20260505082105 53 360 2.0 2.0 0.00 0.00 0.00 91 1013.4
20260505081505 53 360 0.0 3.0 0.00 0.00 0.00 91 1013.4
20260505081004 53 360 3.0 3.0 0.00 0.00 0.00 91 1013.3
20260505080304 53 132 1.0 2.0 0.00 0.00 0.00 92 1013.4
20260505075804 53 107 0.0 2.0 0.00 0.00 0.00 92 1013.4
20260505075304 53 360 2.0 2.0 0.00 0.00 0.00 92 1013.4
20260505074805 54 360 1.0 3.0 0.00 0.00 0.00 92 1013.5
20260505074304 53 360 2.0 3.0 0.00 0.00 0.00 91 1013.4
20260505073804 53 173 1.0 3.0 0.00 0.00 0.00 92 1013.4
20260505073304 53 360 2.0 3.0 0.00 0.00 0.00 91 1013.4
20260505072604 54 360 1.0 3.0 0.00 0.00 0.00 92 1013.2
20260505072104 54 360 2.0 3.0 0.00 0.00 0.00 92 1013.2
20260505071604 54 360 2.0 3.0 0.00 0.00 0.00 92 1013.2
20260505071104 54 360 0.0 2.0 0.00 0.00 0.00 92 1013.1
20260505070604 54 360 2.0 2.0 0.00 0.00 0.00 92 1013.1
20260505070104 54 360 0.0 3.0 0.00 0.00 0.00 92 1012.9
20260505065604 54 360 2.0 3.0 0.00 0.00 0.00 92 1013.0
20260505065104 54 360 2.0 3.0 0.00 0.00 0.00 92 1013.1
20260505064604 54 360 0.0 3.0 0.00 0.00 0.00 92 1012.9
20260505064104 54 360 2.0 3.0 0.00 0.00 0.00 92 1012.8
20260505063604 54 360 2.0 3.0 0.00 0.00 0.00 92 1012.9
20260505063104 54 360 1.0 4.0 0.00 0.00 0.00 92 1012.9
20260505062604 54 360 3.0 4.0 0.00 0.00 0.00 92 1013.0
20260505062104 54 360 2.0 4.0 0.00 0.00 0.00 92 1013.0
20260505061604 54 360 2.0 4.0 0.00 0.00 0.00 92 1012.9
20260505061104 54 360 3.0 4.0 0.00 0.00 0.00 92 1012.8
20260505060504 54 360 1.0 4.0 0.00 0.00 0.00 92 1012.7
20260505060004 54 360 0.0 4.0 0.00 0.00 0.00 92 1012.6
20260505055504 54 360 2.0 4.0 0.00 0.00 0.00 92 1012.6
20260505055006 54 360 1.0 4.0 0.00 0.00 0.00 92 1012.6
20260505054504 54 360 3.0 3.0 0.00 0.00 0.00 92 1012.6
20260505054004 54 360 1.0 3.0 0.00 0.00 0.00 92 1012.5
20260505053504 54 360 2.0 3.0 0.00 0.00 0.00 92 1012.6
20260505053004 54 360 3.0 3.0 0.00 0.00 0.00 92 1012.6
20260505052504 54 360 2.0 4.0 0.00 0.00 0.00 92 1012.5
20260505052004 54 360 3.0 4.0 0.00 0.00 0.00 92 1012.5
20260505051504 54 360 2.0 3.0 0.00 0.00 0.00 92 1012.5
20260505051005 54 360 3.0 5.0 0.00 0.00 0.00 92 1012.5
20260505050504 54 360 2.0 5.0 0.00 0.00 0.00 92 1012.5
20260505041504 54 360 0.0 2.0 0.00 0.00 0.00 92 1012.1
20260505040804 54 360 0.0 3.0 0.00 0.00 0.00 91 1012.0
20260505040304 54 360 1.0 3.0 0.00 0.00 0.00 91 1011.9
20260505035804 55 360 3.0 3.0 0.00 0.00 0.00 90 1011.9
20260505035304 55 360 2.0 3.0 0.00 0.00 0.00 89 1011.9
20260505034804 55 360 2.0 4.0 0.00 0.00 0.00 89 1011.8
20260505033904 56 360 3.0 4.0 0.00 0.00 0.00 87 1011.7
20260505033204 57 360 2.0 4.0 0.00 0.00 0.00 86 1011.5
20260505032704 57 360 4.0 5.0 0.00 0.00 0.00 86 1011.5
20260505032204 58 360 4.0 5.0 0.00 0.00 0.00 84 1011.5
20260505031704 59 360 2.0 4.0 0.00 0.00 0.00 83 1011.5
20260505031204 60 360 3.0 4.0 0.00 0.00 0.00 82 1011.3
20260505030704 60 360 1.0 4.0 0.00 0.00 0.00 81 1011.2
20260505030204 61 360 2.0 4.0 0.00 0.00 0.00 81 1011.1
20260505025704 61 360 2.0 4.0 0.00 0.00 0.00 80 1011.1
20260505025104 62 360 4.0 6.0 0.00 0.00 0.00 79 1011.0
20260505024604 63 163 5.0 6.0 0.00 0.00 0.00 78 1010.8
20260505024104 64 172 6.0 6.0 0.00 0.00 0.00 77 1010.8
20260505023604 64 168 5.0 5.0 0.00 0.00 0.00 76 1010.8
20260505023104 64 165 2.0 5.0 0.00 0.00 0.00 75 1010.8
20260505022604 65 191 1.0 5.0 0.00 0.00 0.00 76 1010.8
20260505022104 65 193 1.0 5.0 0.00 0.00 0.00 75 1010.8
20260505021604 65 210 3.0 6.0 0.00 0.00 0.00 75 1010.7
20260505021104 65 188 4.0 6.0 0.00 0.00 0.00 76 1010.8
20260505020604 65 206 5.0 6.0 0.00 0.00 0.00 75 1010.7
20260505020104 66 200 2.0 6.0 0.00 0.00 0.00 74 1010.7
20260505015604 66 180 6.0 7.0 0.00 0.00 0.00 74 1010.7
20260505015104 67 144 2.0 7.0 0.00 0.00 0.00 72 1010.6
20260505014604 67 168 4.0 8.0 0.00 0.00 0.00 71 1010.5
20260505013904 68 194 6.0 8.0 0.00 0.00 0.00 70 1010.5
20260505013404 68 193 3.0 9.0 0.00 0.00 0.00 70 1010.4
20260505012804 68 200 9.0 9.0 0.00 0.00 0.00 69 1010.4
20260505012304 69 165 5.0 8.0 0.00 0.00 0.00 69 1010.4
20260505011804 69 198 6.0 7.0 0.00 0.00 0.00 67 1010.4
20260505011304 69 198 5.0 11.0 0.00 0.00 0.00 69 1010.4
20260505010804 69 202 7.0 11.0 0.00 0.00 0.00 71 1010.4
20260505010104 70 210 6.0 8.0 0.00 0.00 0.00 68 1010.5
20260505005604 71 168 6.0 8.0 0.00 0.00 0.00 67 1010.4
20260505005104 71 167 5.0 7.0 0.00 0.00 0.00 65 1010.4
20260505004604 71 159 4.0 7.0 0.00 0.00 0.00 66 1010.4
20260505004004 72 178 4.0 8.0 0.00 0.00 0.00 66 1010.3